sat.trackr.live / text

‹ back to catalog

STARLINK-34683

NORAD 64857 · 2025-152R

PAYLOAD ACTIVE UNKNOWN

§ Identity

Operator
Country
US
Launch date
2025-07-19
Launch site
AFWTR
Launch vehicle
Mass (kg)
RCS (m²)

Purposes: comms

External: N2YO · Heavens-Above · Gunter

§ Orbital elements

Epoch: 2026-09-20T14:31:58.981728Z

Period
93.91 min
Inclination
97.2802°
Eccentricity
0.0002139
Mean motion
15.33461350 rev/d
Perigee alt
464.0 km
Apogee alt
467.0 km
Semi-major
6,843.6 km
B*
5.5531e-4
RAAN
114.2227°
Arg perigee
86.5193°
Mean anomaly
273.6294°
Rev number
6,484

§ Raw data

STARLINK-346831 64857U 25152R   26263.60554377  .00017905  00000+0  55531-3 0  99942 64857  97.2802 114.2227 0002139  86.5193 273.6294 15.33461350 64842

JSON: /api/v1/satellites/64857 · /tle

For live sub-satellite position, see the globe view (requires WebGL).

§ Visibility from observer

Set your observer location to see the next 7 days of passes ≥ 10°. The values pass through the URL so the page stays shareable.

No JS? Fill the form by hand. The geolocation button needs JavaScript.